Weather in Sofiyevka

Russia / Orenburg Oblast     53°10′55″N   54°26′37″E
temp.,
°C
wind,
m/s
gust,
m/s
humid.,
%
clouds,
%
prec.,
mm/h
press.,
hPa
HPBL,
m
9 december, thu
thu923:00−8sse61492100 0.0 1035282
02:00−8se61488100 0.0 1034285
05:00−8se71582100 0.0 1034290
08:00−9se6167897 0.0 1033288
11:00−8se71776100 0.0 1033311
14:00−7se71678100 0.0 1031353
17:00−7se7167795 0.0 1030320
20:00−6sse71774100 0.0 1029340
10 december, fri
fri1023:00−6sse71675100 0.0 1028324
02:00−6sse51382100 0.0 1027308
05:00−6se41184100 0.1 1026259
08:00−5se31081100 0.1 1026229
11:00−4ese3980100 0.1 1025217
14:00−4e2681100 0.0 1025187
17:00−4ne3685100 0.0 1025134
20:00−5ne3981100 0.0 1026167
11 december, sat
sat1123:00−5nne51380100 0.0 1026268
02:00−5nne61489100 0.0 1026339
05:00−6nne71592100 0.0 1026376
08:00−8nne816895 0.0 1028311
11:00−9ne714875 0.0 1030283
14:00−8ne613855 0.0 1031288
17:00−9ne614845 0.0 1033257
20:00−10nne513845 0.0 1035209
12 december, sun
sun1223:00−11nne512865 0.0 1037177
02:00−10ne512825 0.0 1038200
05:00−12nne39895 0.0 1040145
08:00−13ne34925 0.0 104150
11:00−12ne22905 0.0 104341
14:00−8nne22855 0.0 104348
17:00−11nne22915 0.0 104417
20:00−13ne22915 0.0 104518
13 december, mon
mon1323:00−14nne22915 0.0 104518
02:00−14nne22915 0.0 104514
05:00−14nne22905 0.0 104615
08:00−14ne22895 0.0 104513
11:00−12ne22865 0.0 104517
14:00−9nne11855 0.0 104411
17:00−12ne11845 0.0 10449
20:00−13ne11835 0.0 10449